Main page
METAR-TAF:

METAR-TAF

Airports :

Puerto Suárez International Airport

Puerto Suárez, Bolivia

latitude: 18-59S, longitude: 057-49W, elevation: 134 m

Current weather observation

The report was made 2 hours and 35 minutes ago, at 21:00 UTC
Calm wind
Temperature 18°C
Humidity 83%
Pressure 1027 hPa
Visibility 10 km or more
Broken clouds at a height of 1500 ft
Overcast at a height of 7000 ft

METAR: SLPS 092100Z 00000KT 9999 BKN015 OVC070 18/15 Q1027

Time: 19:35 (23:35 UTC)


TAF: missing

Weather observations and forecasts of more than 4000 airports (METAR and TAF reports).

The available stations are represented by yellow and red dots on the map.

Hover mouse over dot to see the name of the station.

Then click to see weather observations and forecasts.

To change the map : click on the green buttons with a black cross to zoom in, on the green button with a dash to zoom out, or on the green arrows for adjacent maps.


METAR-TAF: